Regional Weather Roundup
Issued by NWS

Home | Current Version | Previous Version | Text Only | Print | Product List | Glossary On
Versions: 1 2 3 4 5 6 7 8 9 10 11 12 13 14 15 16 17 18 19 20 21 22 23 24 25 26 27 28 29 30 31 32 33 34 35 36 37 38 39 40 41 42 43 44 45 46 47 48 49 50
000
ASUS43 KMKX 161700
RWRWI

WISCONSIN REGIONAL WEATHER ROUNDUP
NATIONAL WEATHER SERVICE MILWAUKEE/SULLIVAN WI
1200 PM CDT TUE SEP 16 2014

NOTE: "FAIR" INDICATES FEW OR NO CLOUDS BELOW 12,000 FEET WITH NO
SIGNIFICANT WEATHER AND/OR OBSTRUCTIONS TO VISIBILITY.

WIZ001-002-006>008-014>016-023>028-161800-
NORTHWEST WISCONSIN

CITY           SKY/WX    TMP DP  RH WIND       PRES   REMARKS
SUPERIOR ARPT  SUNNY     64  44  47 W13       30.05F
ASHLAND        SUNNY     63  43  48 W13G20    30.06F
HAYWARD          N/A     61  39  44 MISG      30.10F
SIREN          SUNNY     60  40  47 W12G18    30.12F
RICE LAKE      SUNNY     61  38  42 SW9G17    30.15F
LADYSMITH      SUNNY     61  42  49 W10       30.15S
EAU CLAIRE     NOT AVBL
MENOMONIE      SUNNY     62  40  43 W6        30.16S
NEW RICHMOND   SUNNY     62  40  45 W7        30.15F
OSCEOLA        SUNNY     62  43  50 SW10      30.17S
$$

WIZ003>005-009-010-017-018-161800-
NORTH CENTRAL WISCONSIN

CITY           SKY/WX    TMP DP  RH WIND       PRES   REMARKS
WOODRUFF       SUNNY     59  39  46 W9G17     30.09F
RHINELANDER    SUNNY     60  39  45 W14G20    30.11F
EAGLE RIVER    SUNNY     60  36  41 W14       30.08F
LAND O LAKES   SUNNY     59  38  44 W13G18    30.07F
PHILLIPS       SUNNY     59  39  47 W8        30.11F
TOMAHAWK       SUNNY     59  37  44 W12G18    30.13S
MEDFORD        SUNNY     58  42  55 SW9       30.14F
MERRILL        PTSUNNY   60  41  49 W12G18    30.12F
$$

WIZ029-030-035-036-043>047-161800-
CENTRAL WISCONSIN

CITY           SKY/WX    TMP DP  RH WIND       PRES   REMARKS
WAUSAU         SUNNY     60  41  49 W7        30.13F
MOSINEE        NOT AVBL
MARSHFIELD     SUNNY     62  43  49 W12       30.15F
STEVENS POINT  SUNNY     57  39  51 W6        30.16F
WAUPACA        SUNNY     62  39  42 W8        30.16F
WAUTOMA        NOT AVBL
WISC RAPIDS    SUNNY     61  39  44 W10       30.17F
CAMP DOUGLAS   NOT AVBL
$$

WIZ011>013-019>022-031-037>040-048>050-161800-
NORTHEAST WISCONSIN

CITY           SKY/WX    TMP DP  RH WIND       PRES   REMARKS
ANTIGO         SUNNY     58  41  52 W10       30.13F
STURGEON BAY   SUNNY     59  37  44 W13       30.13S
GREEN BAY      SUNNY     62  41  46 SW9       30.14F
MANITOWOC      NOT AVBL
APPLETON       SUNNY     59  37  44 W9        30.16F
CLINTONVILLE   SUNNY     59  37  44 W7        30.14F
OSHKOSH        SUNNY     59  38  45 W8        30.16F
$$

WIZ032>034-041-042-053>061-161800-
SOUTHWEST WISCONSIN

CITY           SKY/WX    TMP DP  RH WIND       PRES   REMARKS
LA CROSSE      SUNNY     63  43  48 W8        30.18F
SPARTA         SUNNY     59  42  54 W7        30.19F
VIROQUA        FAIR      59  41  51 W10       30.20S
BOSCOBEL       PTSUNNY   62  44  51 VRB3      30.20F
PRAIRIE DU CHI SUNNY     60  41  50 S3        30.21S
PLATTEVILLE    FAIR      60  41  50 CALM      30.22F
$$

WIZ056-057-062-063-064-067-068-161800-
SOUTH CENTRAL WISCONSIN

CITY           SKY/WX    TMP DP  RH WIND       PRES   REMARKS
BARABOO/DELLS  MOSUNNY   59  39  47 W10G16    30.18F
LONE ROCK      NOT AVBL
WATERTOWN      SUNNY     58  42  53 W6        30.19F
MADISON        MOSUNNY   60  39  45 NW8       30.20S
MIDDLETON      FAIR      60  40  47 W9        30.20F
MONROE         SUNNY     59  41  51 W10       30.21S
JANESVILLE     MOSUNNY   61  39  44 NW12      30.19
$$

WIZ051-052-058>065-066-070>072-161800-
SOUTHEAST WISCONSIN

CITY           SKY/WX    TMP DP  RH WIND       PRES   REMARKS
MILWAUKEE      MOSUNNY   60  36  40 W6        30.19F
WAUKESHA       MOSUNNY   55  39  54 SW5       30.20F
MILWAUKEE/TIMM NOT AVBL
RACINE         SUNNY     61  39  44 W9        30.20F
BURLINGTON     SUNNY     58  38  45 W5        30.20S
KENOSHA        SUNNY     60  42  51 W8        30.19F
FOND DU LAC    SUNNY     59  37  44 SW3       30.17F
SHEBOYGAN      SUNNY     60  40  47 SW9       30.17F
WEST BEND      SUNNY     57  34  41 CALM      30.18F
JUNEAU         SUNNY     57  36  45 NW7       30.19F
$$

LSZ147-162-161800-
LAKE SUPERIOR

STATION/POSITION TIME  TEMP    WIND        PRES    WAVE
                       AIR SEA DIR/SP/G            HT/PER
                 (UTC) (F)     (DEG/KT/KT) (MB)    (FT/S)
W MID LAKE BUOY  1550   50 47  240/ 17/ 19 1015.6F   5/ 6
DEVILS ISLAND    1600   53     230/ 21/ 25 1016.7F
PORT WING        1600   59     240/ 10/ 14 1017.9
SAXON HARBOR     1640   63     250/  9/ 12 1017.9F
$$

LMZ867-665-643>646-161800-
LAKE MICHIGAN

STATION/POSITION TIME  TEMP    WIND        PRES    WAVE
                       AIR SEA DIR/SP/G            HT/PER
                 (UTC) (F)     (DEG/KT/KT) (MB)    (FT/S)
N MID LAKE BUOY  1550   53 59  250/ 12/ 14 1019.8F   1/ 3
NORTHPORT PIER   1600   59     270/  6/ 11 1019.6F
KEWAUNEE LAKESHO 1500   54     280/  6/  9 1020.5S
SHEBOYGAN LAKESH 1600   56 49  280/  6/  8 1022.3F
PORT WASHINGTON  1600   60     320/  6/ 10 1022.7F
ATWATER BUOY     1600   57     290/  4/  4 1023.5F
MILWAUKEE LAKESH 1600   59      70/  1/  3   N/A
S MID LAKE BUOY  1550   58 64  310/  8/ 10 1022.7R   2/ 5
KENOSHA   LAKESH 1600   56      30/  2/  5 1022.4
$$

TC  - TEMPERATURE IN CELSIUS
VSB - VISIBILITY IN STATUTE MILES
WCI - WIND CHILL INDEX
HX  - HEAT INDEX



USA.gov is the U.S. government's official web portal to all federal, state and local government web resources and services.